RH
33 32 32 30 30 29 27 27 28 29 30 32 33 34 34 37 39 39 40 44 48 54 62 54 66 64 71 65 73 77 79 73
28 29 30 32 32 32 32 33 35 36 35 36 40 44 43 46 47 46 47 48 49 53 67 64 72 76 82 80 67 68 79 96
32 35 39 41 41 44 47 48 47 46 52 54 59 60 60 59 60 63 63 64 72 66 67 75 81 87 87 91 91 81 70 90
33 34 34 34 33 36 38 42 45 48 49 49 52 53 52 51 50 52 63 66 66 80 81 86 87 94 94 95 87 88 77 82
25 24 22 21 20 21 23 23 24 24 24 32 33 34 40 50 54 56 67 67 71 75 76 94 80 71 94 95 95 97 81 84
29 28 26 27 26 28 30 30 30 29 26 24 24 30 36 49 63 75 82 79 82 79 67 82 69 68 75 96 98 64 97 99
28 32 35 38 38 33 25 14 10 8 6 12 35 48 32 16 11 14 29 49 57 52 47 49 59 77 95 89 88 79 97 96
38 34 34 30 22 17 11 10 8 15 27 34 24 13 8 4 3 4 10 11 37 34 41 43 68 86 81 73 83 99 96 97
30 31 32 25 16 13 10 10 20 27 19 17 6 3 3 2 3 5 15 40 48 43 42 41 43 61 62 56 43 93 98 96
35 30 27 21 14 12 14 21 17 8 4 3 2 2 2 3 13 56 50 87 68 86 100 90 95 76 61 67 100 99 100 98
35 29 22 17 22 31 29 13 6 3 2 2 2 2 2 6 45 100 100 78 75 100 100 100 100 100 100 100 100 100 100 100
32 27 27 43 41 22 6 2 2 2 2 2 3 5 7 33 76 99 100 100 96 100 99 98 100 100 100 100 100 100 99 99
46 48 54 35 11 3 2 2 2 4 6 11 35 53 71 100 71 57 92 100 99 96 100 100 84 47 98 100 100 100 100 100
50 33 14 3 2 2 2 3 10 53 61 53 96 75 90 55 44 60 89 100 100 100 98 99 97 75 78 89 94 98 100 100
8 5 2 2 2 2 3 28 87 80 54 66 55 49 82 67 97 100 99 100 100 100 100 100 98 92 100 95 97 99 100 98
3 2 2 2 2 3 14 78 93 87 46 64 97 100 98 100 100 99 100 97 92 90 36 25 33 42 55 30 21 41 47 52
3 4 3 3 3 5 85 100 100 100 91 68 88 99 91 100 100 81 14 19 10 12 10 11 19 20 16 12 10 17 54 27
5 7 5 5 6 27 70 94 95 100 98 92 98 93 100 93 95 100 49 12 15 39 43 25 19 18 14 9 7 8 8 9
8 18 25 45 18 51 70 85 96 95 100 100 100 99 97 92 73 72 72 70 63 62 58 55 39 25 23 13 9 10 11 12
Wind_Speed
34 36 38 39 41 44 46 49 52 54 57 60 61 62 63 62 62 65 65 65 66 67 69 70 65 64 61 62 60 63 56 51
40 41 43 45 48 50 53 56 58 60 62 64 65 65 64 62 61 62 64 67 69 71 73 72 70 65 62 60 62 63 61 55
42 44 47 49 51 53 54 56 58 60 61 63 63 65 68 69 69 69 69 71 71 72 76 76 70 67 65 65 61 62 62 63
45 46 48 50 52 54 57 60 62 64 65 66 68 69 70 71 71 69 66 66 70 67 71 72 69 66 68 68 67 64 66 65
42 46 50 54 56 61 64 68 71 73 74 74 73 73 72 69 68 69 67 67 69 70 68 80 69 64 66 70 78 60 67 72
49 53 56 61 65 69 74 76 78 79 82 83 84 81 79 75 66 53 58 64 65 69 61 73 70 67 71 59 54 59 61 73
56 59 62 66 70 74 75 72 76 85 90 92 89 83 77 74 72 67 59 54 57 62 64 70 69 66 63 72 61 58 58 55
67 68 72 76 77 75 74 76 85 92 95 94 90 88 89 84 76 70 67 63 62 65 70 66 69 71 76 77 68 61 70 69
68 74 77 78 78 80 83 91 100 101 95 99 101 100 97 89 81 71 64 66 68 71 70 77 74 77 77 73 73 67 70 57
75 79 81 80 83 91 99 104 99 100 105 107 104 96 88 84 75 69 64 76 75 77 74 82 83 79 77 75 76 80 77 81
79 80 81 87 97 103 104 102 106 108 106 99 96 86 74 74 68 71 72 74 78 80 80 74 77 74 78 77 81 81 78 77
82 83 92 100 102 102 103 103 101 95 86 76 64 62 59 35 37 56 64 64 78 77 78 77 67 65 70 72 67 77 79 85
87 95 100 101 101 101 98 89 81 57 49 44 28 23 21 16 25 29 42 48 58 73 74 69 65 72 70 60 58 59 48 49
93 94 95 95 93 83 79 66 33 20 24 22 16 19 16 21 29 23 20 22 23 28 34 39 58 55 45 59 64 49 38 38
85 88 87 82 78 76 64 21 18 18 16 12 14 8 14 15 20 24 15 17 22 18 19 19 21 20 20 23 26 29 33 34
83 81 76 73 71 65 24 16 15 11 5 5 8 14 18 26 24 8 6 8 6 6 8 9 13 18 21 20 19 22 25 25
70 67 65 63 58 33 14 11 10 8 8 9 7 14 18 25 19 13 9 8 8 8 11 13 14 16 20 20 20 19 22 20
56 54 56 52 39 19 10 5 8 13 16 12 13 13 16 20 21 19 15 14 14 16 17 18 19 19 21 23 24 23 22 25
45 44 44 37 20 19 16 9 8 14 16 10 11 17 20 21 19 18 18 18 20 23 25 26 27 28 28 28 30 31 32 32
Wind_Direction
277 275 275 276 276 276 275 274 273 271 272 274 274 274 275 275 274 272 272 273 274 275 274 274 272 273 273 273 272 275 275 273
285 283 281 281 279 277 275 274 273 274 273 272 272 273 272 270 269 267 266 267 268 270 271 272 272 270 268 265 266 268 272 270
282 283 281 279 279 279 279 278 277 276 274 273 272 270 270 271 269 267 267 265 265 266 268 267 267 266 265 265 264 264 263 267
281 280 280 281 282 282 281 280 279 278 277 276 277 277 276 274 272 270 265 265 267 265 266 267 269 269 265 263 261 262 262 264
280 282 284 285 285 287 285 282 280 278 277 279 278 277 276 275 274 274 272 269 266 268 270 259 264 268 268 259 258 263 265 262
288 287 285 283 282 281 280 279 279 281 281 281 280 281 281 287 290 278 265 266 266 264 257 269 269 270 265 250 266 273 258 267
289 288 285 285 285 285 286 291 298 296 293 292 295 299 300 298 295 289 278 267 262 264 258 257 258 258 257 261 258 259 251 252
296 296 296 298 297 293 293 293 289 288 290 296 302 301 299 296 289 282 272 270 253 256 255 252 255 250 253 259 260 261 253 259
294 293 295 295 292 289 288 286 289 294 302 303 302 300 297 292 286 275 263 250 242 244 250 241 240 246 243 242 249 254 254 253
294 295 295 292 289 288 288 290 301 306 305 303 301 296 290 285 278 271 255 247 244 243 245 241 239 239 242 238 248 245 244 246
293 294 293 291 290 295 301 306 306 306 304 299 297 293 287 278 270 261 258 253 251 255 252 251 242 243 245 244 245 244 242 245
298 296 291 294 300 303 307 309 306 302 299 298 289 283 286 299 274 265 262 258 253 260 261 260 255 254 252 255 251 251 249 248
296 293 300 303 306 309 309 304 302 298 290 291 301 306 306 291 303 310 265 254 259 257 261 264 256 256 256 255 246 231 226 233
298 302 305 309 309 307 305 306 293 299 308 294 279 311 315 314 313 312 293 263 255 253 265 269 256 269 279 271 263 258 251 238
303 306 308 309 312 311 309 281 288 292 311 315 301 285 271 293 306 302 296 278 265 259 243 233 239 248 249 251 257 260 258 252
309 310 312 314 315 312 279 257 270 280 297 294 290 285 282 296 313 334 344 12 3 334 291 265 246 240 236 232 238 241 243 249
311 315 318 320 316 302 227 271 273 259 252 256 289 286 271 298 315 330 321 316 308 289 273 271 277 266 251 252 249 242 230 232
318 322 325 323 313 226 232 270 260 246 256 241 260 266 295 301 308 313 307 301 298 294 292 286 279 264 258 254 253 255 250 249
322 328 331 331 313 206 243 272 278 257 249 238 272 267 292 296 302 301 299 294 291 291 290 287 284 279 276 270 263 261 263 261